| time (UTC) | temp F | wind direction | speed MPH | gust MPH | rain 1hr in | rain 24hr in | rain mn in | humidity % | barometer mb |
| 20260507121042 | 60 | 9 | 1.0 | 7.0 | 0.00 | 0.00 | 0.00 | 57 | 1016.4 |
| 20260507120539 | 60 | 221 | 2.0 | 7.0 | 0.00 | 0.00 | 0.00 | 55 | 1016.4 |
| 20260507120058 | 60 | 221 | 2.0 | 7.0 | 0.00 | 0.00 | 0.00 | 54 | 1016.4 |
| 20260507115542 | 61 | 140 | 2.0 | 7.0 | 0.00 | 0.00 | 0.00 | 56 | 1016.3 |
| 20260507115041 | 61 | 252 | 1.0 | 4.0 | 0.00 | 0.00 | 0.00 | 57 | 1016.3 |
| 20260507114621 | 60 | 22 | 1.0 | 4.0 | 0.00 | 0.00 | 0.00 | 54 | 1016.3 |
| 20260507114040 | 60 | 245 | 1.0 | 4.0 | 0.00 | 0.00 | 0.00 | 53 | 1016.3 |
| 20260507113543 | 60 | 105 | 1.0 | 5.0 | 0.00 | 0.00 | 0.00 | 55 | 1016.4 |
| 20260507113043 | 60 | 93 | 0.0 | 7.0 | 0.00 | 0.00 | 0.00 | 54 | 1016.4 |
| 20260507112538 | 60 | 0 | 2.0 | 7.0 | 0.00 | 0.00 | 0.00 | 54 | 1016.4 |
| 20260507112041 | 60 | 64 | 2.0 | 7.0 | 0.00 | 0.00 | 0.00 | 55 | 1016.5 |
| 20260507111539 | 60 | 309 | 1.0 | 7.0 | 0.00 | 0.00 | 0.00 | 56 | 1016.5 |
| 20260507111038 | 60 | 153 | 1.0 | 6.0 | 0.00 | 0.00 | 0.00 | 58 | 1016.5 |
| 20260507110538 | 60 | 165 | 1.0 | 5.0 | 0.00 | 0.00 | 0.00 | 57 | 1016.5 |
| 20260507110046 | 60 | 0 | 2.0 | 4.0 | 0.00 | 0.00 | 0.00 | 58 | 1016.6 |
| 20260507105540 | 60 | 68 | 1.0 | 4.0 | 0.00 | 0.00 | 0.00 | 60 | 1016.6 |
| 20260507105041 | 59 | 26 | 1.0 | 6.0 | 0.00 | 0.00 | 0.00 | 61 | 1016.6 |
| 20260507104546 | 59 | 0 | 1.0 | 6.0 | 0.00 | 0.00 | 0.00 | 57 | 1016.6 |
| 20260507104040 | 59 | 291 | 2.0 | 8.0 | 0.00 | 0.00 | 0.00 | 55 | 1016.6 |
| 20260507103540 | 61 | 68 | 1.0 | 8.0 | 0.00 | 0.00 | 0.00 | 56 | 1016.6 |
| 20260507103042 | 62 | 68 | 2.0 | 8.0 | 0.00 | 0.00 | 0.00 | 56 | 1016.7 |
| 20260507102539 | 61 | 27 | 2.0 | 7.0 | 0.00 | 0.00 | 0.00 | 60 | 1016.6 |
| 20260507102043 | 59 | 111 | 2.0 | 7.0 | 0.00 | 0.00 | 0.00 | 61 | 1016.6 |
| 20260507101544 | 59 | 178 | 2.0 | 7.0 | 0.00 | 0.00 | 0.00 | 58 | 1016.6 |
| 20260507101043 | 60 | 43 | 1.0 | 7.0 | 0.00 | 0.00 | 0.00 | 59 | 1016.7 |
| 20260507100538 | 59 | 282 | 2.0 | 8.0 | 0.00 | 0.00 | 0.00 | 59 | 1016.7 |
| 20260507100044 | 60 | 249 | 1.0 | 8.0 | 0.00 | 0.00 | 0.00 | 61 | 1016.5 |
| 20260507095542 | 60 | 49 | 3.0 | 7.0 | 0.00 | 0.00 | 0.00 | 60 | 1016.6 |
| 20260507095038 | 60 | 0 | 2.0 | 7.0 | 0.00 | 0.00 | 0.00 | 62 | 1016.5 |
| 20260507094549 | 59 | 51 | 1.0 | 6.0 | 0.00 | 0.00 | 0.00 | 66 | 1016.6 |
| 20260507094038 | 58 | 334 | 2.0 | 6.0 | 0.00 | 0.00 | 0.00 | 63 | 1016.6 |
| 20260507093540 | 59 | 279 | 2.0 | 7.0 | 0.00 | 0.00 | 0.00 | 65 | 1016.7 |
| 20260507093049 | 58 | 0 | 2.0 | 7.0 | 0.00 | 0.00 | 0.00 | 63 | 1016.6 |
| 20260507092541 | 59 | 218 | 2.0 | 6.0 | 0.00 | 0.00 | 0.00 | 67 | 1016.6 |
| 20260507092040 | 58 | 165 | 1.0 | 6.0 | 0.00 | 0.00 | 0.00 | 69 | 1016.6 |
| 20260507091547 | 56 | 0 | 1.0 | 5.0 | 0.00 | 0.00 | 0.00 | 69 | 1016.5 |
| 20260507091041 | 56 | 0 | 2.0 | 5.0 | 0.00 | 0.00 | 0.00 | 67 | 1016.5 |
| 20260507090542 | 56 | 28 | 1.0 | 5.0 | 0.00 | 0.00 | 0.00 | 69 | 1016.5 |
| 20260507090054 | 56 | 51 | 1.0 | 6.0 | 0.00 | 0.00 | 0.00 | 70 | 1016.5 |
| 20260507085539 | 56 | 301 | 2.0 | 7.0 | 0.00 | 0.00 | 0.00 | 68 | 1016.5 |
| 20260507085043 | 55 | 212 | 1.0 | 7.0 | 0.00 | 0.00 | 0.00 | 70 | 1016.5 |
| 20260507084558 | 55 | 9 | 1.0 | 6.0 | 0.00 | 0.00 | 0.00 | 70 | 1016.5 |
| 20260507084043 | 55 | 0 | 1.0 | 5.0 | 0.00 | 0.00 | 0.00 | 73 | 1016.4 |
| 20260507083539 | 55 | 51 | 2.0 | 5.0 | 0.00 | 0.00 | 0.00 | 74 | 1016.4 |
| 20260507083057 | 54 | 0 | 0.0 | 5.0 | 0.00 | 0.00 | 0.00 | 75 | 1016.4 |
| 20260507082544 | 54 | 282 | 1.0 | 5.0 | 0.00 | 0.00 | 0.00 | 75 | 1016.5 |
| 20260507082041 | 54 | 26 | 1.0 | 4.0 | 0.00 | 0.00 | 0.00 | 76 | 1016.4 |
| 20260507081552 | 53 | 0 | 1.0 | 6.0 | 0.00 | 0.00 | 0.00 | 74 | 1016.4 |
| 20260507081044 | 53 | 0 | 1.0 | 6.0 | 0.00 | 0.00 | 0.00 | 76 | 1016.2 |
| 20260507080541 | 53 | 325 | 1.0 | 5.0 | 0.00 | 0.00 | 0.00 | 76 | 1016.3 |
| 20260507080105 | 54 | 309 | 1.0 | 4.0 | 0.00 | 0.00 | 0.00 | 76 | 1016.4 |
| 20260507075540 | 53 | 34 | 0.0 | 4.0 | 0.00 | 0.00 | 0.00 | 77 | 1016.3 |
| 20260507075040 | 52 | 265 | 1.0 | 4.0 | 0.00 | 0.00 | 0.00 | 76 | 1016.2 |
| 20260507074559 | 52 | 325 | 1.0 | 4.0 | 0.00 | 0.00 | 0.00 | 76 | 1016.2 |
| 20260507074039 | 52 | 309 | 0.0 | 3.0 | 0.00 | 0.00 | 0.00 | 76 | 1016.2 |
| 20260507073539 | 52 | 330 | 1.0 | 3.0 | 0.00 | 0.00 | 0.00 | 76 | 1016.2 |
| 20260507073057 | 52 | 51 | 0.0 | 2.0 | 0.00 | 0.00 | 0.00 | 79 | 1016.1 |
| 20260507072539 | 52 | 30 | 0.0 | 3.0 | 0.00 | 0.00 | 0.00 | 79 | 1016.0 |
| 20260507072040 | 52 | 265 | 1.0 | 3.0 | 0.00 | 0.00 | 0.00 | 79 | 1016.1 |
| 20260507071550 | 51 | 0 | 1.0 | 3.0 | 0.00 | 0.00 | 0.00 | 79 | 1016.0 |
| 20260507071043 | 51 | 26 | 1.0 | 3.0 | 0.00 | 0.00 | 0.00 | 78 | 1016.1 |
| 20260507070542 | 51 | 178 | 0.0 | 4.0 | 0.00 | 0.00 | 0.00 | 79 | 1016.0 |
| 20260507070054 | 51 | 76 | 1.0 | 4.0 | 0.00 | 0.00 | 0.00 | 79 | 1016.0 |
| 20260507065542 | 51 | 0 | 0.0 | 4.0 | 0.00 | 0.00 | 0.00 | 80 | 1016.0 |
| 20260507065038 | 51 | 26 | 1.0 | 5.0 | 0.00 | 0.00 | 0.00 | 80 | 1015.9 |
| 20260507064554 | 51 | 0 | 1.0 | 5.0 | 0.00 | 0.00 | 0.00 | 80 | 1015.9 |
| 20260507064039 | 50 | 51 | 1.0 | 5.0 | 0.00 | 0.00 | 0.00 | 81 | 1015.9 |
| 20260507063542 | 50 | 28 | 1.0 | 4.0 | 0.00 | 0.00 | 0.00 | 82 | 1015.9 |
| 20260507063059 | 50 | 0 | 0.0 | 3.0 | 0.00 | 0.00 | 0.00 | 83 | 1015.9 |
| 20260507062540 | 50 | 61 | 0.0 | 3.0 | 0.00 | 0.00 | 0.00 | 83 | 1015.9 |
| 20260507062042 | 50 | 265 | 1.0 | 3.0 | 0.00 | 0.00 | 0.00 | 83 | 1015.8 |
| 20260507061552 | 50 | 265 | 1.0 | 4.0 | 0.00 | 0.00 | 0.00 | 83 | 1015.7 |
| 20260507061039 | 50 | 30 | 0.0 | 4.0 | 0.00 | 0.00 | 0.00 | 84 | 1015.7 |
| 20260507060539 | 50 | 298 | 0.0 | 3.0 | 0.00 | 0.00 | 0.00 | 84 | 1015.6 |
| 20260507060048 | 50 | 265 | 0.0 | 2.0 | 0.00 | 0.00 | 0.00 | 84 | 1015.7 |
| 20260507055539 | 50 | 309 | 0.0 | 2.0 | 0.00 | 0.00 | 0.00 | 84 | 1015.6 |
| 20260507055038 | 49 | 9 | 0.0 | 2.0 | 0.00 | 0.00 | 0.00 | 84 | 1015.5 |
| 20260507054546 | 49 | 0 | 0.0 | 2.0 | 0.00 | 0.00 | 0.00 | 84 | 1015.5 |
| 20260507054041 | 49 | 0 | 0.0 | 3.0 | 0.00 | 0.00 | 0.00 | 84 | 1015.4 |
| 20260507053539 | 49 | 44 | 0.0 | 3.0 | 0.00 | 0.00 | 0.00 | 84 | 1015.5 |
| 20260507053048 | 49 | 0 | 0.0 | 2.0 | 0.00 | 0.00 | 0.00 | 84 | 1015.4 |
| 20260507052538 | 49 | 0 | 0.0 | 2.0 | 0.00 | 0.00 | 0.00 | 84 | 1015.4 |
| 20260507052038 | 49 | 298 | 0.0 | 2.0 | 0.00 | 0.00 | 0.00 | 84 | 1015.4 |
| 20260507051549 | 49 | 0 | 0.0 | 1.0 | 0.00 | 0.00 | 0.00 | 84 | 1015.3 |
| 20260507051041 | 49 | 0 | 0.0 | 2.0 | 0.00 | 0.00 | 0.00 | 84 | 1015.3 |
| 20260507050539 | 49 | 0 | 0.0 | 2.0 | 0.00 | 0.00 | 0.00 | 84 | 1015.2 |
| 20260507050050 | 49 | 0 | 0.0 | 2.0 | 0.00 | 0.00 | 0.00 | 84 | 1015.3 |
| 20260507045540 | 49 | 0 | 0.0 | 2.0 | 0.00 | 0.00 | 0.00 | 83 | 1015.1 |
| 20260507045038 | 49 | 0 | 0.0 | 1.0 | 0.00 | 0.00 | 0.00 | 83 | 1015.2 |
| 20260507044549 | 49 | 0 | 0.0 | 3.0 | 0.00 | 0.00 | 0.00 | 84 | 1015.0 |
| 20260507044038 | 49 | 0 | 0.0 | 3.0 | 0.00 | 0.00 | 0.00 | 83 | 1015.0 |
| 20260507043539 | 49 | 294 | 0.0 | 2.0 | 0.00 | 0.00 | 0.00 | 83 | 1014.9 |
| 20260507043053 | 49 | 0 | 0.0 | 3.0 | 0.00 | 0.00 | 0.00 | 83 | 1014.8 |
| 20260507042538 | 49 | 0 | 0.0 | 3.0 | 0.00 | 0.00 | 0.00 | 83 | 1014.7 |
| 20260507042042 | 49 | 93 | 0.0 | 2.0 | 0.00 | 0.00 | 0.00 | 82 | 1014.7 |
| 20260507041545 | 49 | 334 | 0.0 | 2.0 | 0.00 | 0.00 | 0.00 | 82 | 1014.7 |
| 20260507041042 | 49 | 56 | 0.0 | 4.0 | 0.00 | 0.00 | 0.00 | 82 | 1014.7 |
| 20260507040541 | 49 | 0 | 0.0 | 4.0 | 0.00 | 0.00 | 0.00 | 82 | 1014.6 |
| 20260507040057 | 49 | 0 | 0.0 | 3.0 | 0.00 | 0.00 | 0.00 | 83 | 1014.6 |
| 20260507035540 | 49 | 0 | 0.0 | 2.0 | 0.00 | 0.00 | 0.00 | 82 | 1014.5 |
| 20260507035040 | 49 | 291 | 0.0 | 2.0 | 0.00 | 0.00 | 0.00 | 82 | 1014.5 |
| 20260507034549 | 49 | 51 | 0.0 | 2.0 | 0.00 | 0.00 | 0.00 | 82 | 1014.4 |
| 20260507034040 | 49 | 51 | 0.0 | 2.0 | 0.00 | 0.00 | 0.00 | 83 | 1014.5 |
| 20260507033541 | 49 | 0 | 0.0 | 2.0 | 0.00 | 0.00 | 0.00 | 83 | 1014.4 |
| 20260507033054 | 49 | 0 | 0.0 | 1.0 | 0.00 | 0.00 | 0.00 | 83 | 1014.4 |
| 20260507032540 | 49 | 0 | 0.0 | 1.0 | 0.00 | 0.00 | 0.00 | 83 | 1014.4 |
| 20260507032040 | 49 | 0 | 0.0 | 1.0 | 0.00 | 0.00 | 0.00 | 83 | 1014.5 |
| 20260507031552 | 49 | 0 | 0.0 | 1.0 | 0.00 | 0.00 | 0.00 | 83 | 1014.4 |
| 20260507031043 | 49 | 0 | 0.0 | 1.0 | 0.00 | 0.00 | 0.00 | 83 | 1014.4 |
| 20260507030540 | 49 | 0 | 0.0 | 1.0 | 0.00 | 0.00 | 0.00 | 83 | 1014.3 |
| 20260507030051 | 49 | 0 | 0.0 | 0.0 | 0.00 | 0.00 | 0.00 | 83 | 1014.4 |
| 20260507025539 | 49 | 0 | 0.0 | 0.0 | 0.00 | 0.00 | 0.00 | 83 | 1014.4 |
| 20260507025041 | 49 | 0 | 0.0 | 1.0 | 0.00 | 0.00 | 0.00 | 83 | 1014.3 |
| 20260507024605 | 49 | 0 | 0.0 | 1.0 | 0.00 | 0.00 | 0.00 | 83 | 1014.3 |
| 20260507024042 | 49 | 0 | 0.0 | 1.0 | 0.00 | 0.00 | 0.00 | 83 | 1014.3 |
| 20260507023541 | 49 | 0 | 0.0 | 1.0 | 0.00 | 0.00 | 0.00 | 83 | 1014.3 |
| 20260507023053 | 49 | 0 | 0.0 | 1.0 | 0.00 | 0.00 | 0.00 | 82 | 1014.3 |
| 20260507022540 | 49 | 0 | 0.0 | 1.0 | 0.00 | 0.00 | 0.00 | 82 | 1014.3 |
| 20260507022039 | 49 | 0 | 0.0 | 1.0 | 0.00 | 0.00 | 0.00 | 82 | 1014.2 |
| 20260507021553 | 49 | 0 | 0.0 | 1.0 | 0.00 | 0.00 | 0.00 | 81 | 1014.2 |
| 20260507021042 | 49 | 0 | 0.0 | 1.0 | 0.00 | 0.00 | 0.00 | 82 | 1014.2 |
| 20260507020541 | 49 | 0 | 0.0 | 1.0 | 0.00 | 0.00 | 0.00 | 82 | 1014.2 |
| 20260507020109 | 49 | 0 | 0.0 | 1.0 | 0.00 | 0.00 | 0.00 | 81 | 1014.1 |
| 20260507015540 | 49 | 0 | 0.0 | 1.0 | 0.00 | 0.00 | 0.00 | 82 | 1014.0 |
| 20260507015039 | 49 | 0 | 0.0 | 1.0 | 0.00 | 0.00 | 0.00 | 82 | 1014.0 |
| 20260507014601 | 49 | 0 | 0.0 | 1.0 | 0.00 | 0.00 | 0.00 | 82 | 1013.9 |
| 20260507014039 | 49 | 298 | 0.0 | 1.0 | 0.00 | 0.00 | 0.00 | 81 | 1013.9 |
| 20260507013540 | 49 | 0 | 0.0 | 0.0 | 0.00 | 0.00 | 0.00 | 81 | 1013.9 |
| 20260507013055 | 49 | 0 | 0.0 | 0.0 | 0.00 | 0.00 | 0.00 | 81 | 1014.0 |
| 20260507012540 | 49 | 0 | 0.0 | 0.0 | 0.00 | 0.00 | 0.00 | 80 | 1014.0 |
| 20260507012039 | 49 | 0 | 0.0 | 1.0 | 0.00 | 0.00 | 0.00 | 80 | 1013.9 |
| 20260507011548 | 49 | 0 | 0.0 | 1.0 | 0.00 | 0.00 | 0.00 | 80 | 1013.9 |
| 20260507011041 | 49 | 0 | 0.0 | 1.0 | 0.00 | 0.00 | 0.00 | 80 | 1013.9 |
| 20260507010540 | 49 | 0 | 0.0 | 1.0 | 0.00 | 0.00 | 0.00 | 80 | 1013.8 |
| 20260507010056 | 49 | 0 | 0.0 | 1.0 | 0.00 | 0.00 | 0.00 | 80 | 1013.9 |
| 20260507005539 | 49 | 0 | 0.0 | 1.0 | 0.00 | 0.00 | 0.00 | 80 | 1013.9 |
| 20260507005045 | 49 | 0 | 0.0 | 1.0 | 0.00 | 0.00 | 0.00 | 81 | 1014.0 |
| 20260507004602 | 49 | 0 | 0.0 | 1.0 | 0.00 | 0.00 | 0.00 | 81 | 1013.9 |
| 20260507004041 | 49 | 0 | 0.0 | 1.0 | 0.00 | 0.00 | 0.00 | 81 | 1014.0 |
| 20260507003540 | 50 | 0 | 0.0 | 1.0 | 0.00 | 0.00 | 0.00 | 81 | 1013.9 |
| 20260507003052 | 49 | 0 | 0.0 | 1.0 | 0.00 | 0.00 | 0.00 | 81 | 1013.9 |
| 20260507002539 | 49 | 0 | 0.0 | 1.0 | 0.00 | 0.00 | 0.00 | 81 | 1013.9 |
| 20260507002040 | 49 | 0 | 0.0 | 1.0 | 0.00 | 0.00 | 0.00 | 80 | 1013.8 |
| 20260507001551 | 49 | 0 | 0.0 | 1.0 | 0.00 | 0.00 | 0.00 | 80 | 1013.7 |
| 20260507001040 | 49 | 291 | 0.0 | 1.0 | 0.00 | 0.00 | 0.00 | 80 | 1013.8 |
| 20260507000545 | 49 | 0 | 0.0 | 2.0 | 0.00 | 0.00 | 0.00 | 80 | 1013.8 |
| 20260507000052 | 49 | 0 | 0.0 | 2.0 | 0.00 | 0.00 | 0.00 | 81 | 1013.8 |
| 20260506235545 | 49 | 0 | 0.0 | 2.0 | 0.00 | 0.00 | 0.00 | 80 | 1013.8 |
| 20260506235039 | 49 | 0 | 0.0 | 2.0 | 0.00 | 0.00 | 0.00 | 79 | 1013.8 |
| 20260506234551 | 49 | 0 | 0.0 | 2.0 | 0.00 | 0.00 | 0.00 | 80 | 1013.8 |
| 20260506234041 | 49 | 0 | 0.0 | 2.0 | 0.00 | 0.00 | 0.00 | 80 | 1013.8 |
| 20260506233612 | 49 | 282 | 0.0 | 1.0 | 0.00 | 0.00 | 0.00 | 80 | 1013.8 |
| 20260506233101 | 49 | 0 | 0.0 | 1.0 | 0.00 | 0.00 | 0.00 | 79 | 1013.7 |
| 20260506232542 | 50 | 0 | 0.0 | 1.0 | 0.00 | 0.00 | 0.00 | 79 | 1013.7 |
| 20260506232040 | 49 | 0 | 0.0 | 1.0 | 0.00 | 0.00 | 0.00 | 79 | 1013.7 |
| 20260506231543 | 50 | 0 | 0.0 | 1.0 | 0.00 | 0.00 | 0.00 | 79 | 1013.7 |
| 20260506231040 | 50 | 309 | 0.0 | 1.0 | 0.00 | 0.00 | 0.00 | 79 | 1013.7 |
| 20260506230539 | 50 | 0 | 0.0 | 1.0 | 0.00 | 0.00 | 0.00 | 79 | 1013.6 |
| 20260506230052 | 50 | 0 | 0.0 | 1.0 | 0.00 | 0.00 | 0.00 | 79 | 1013.5 |
| 20260506225540 | 50 | 0 | 0.0 | 2.0 | 0.00 | 0.01 | 0.00 | 80 | 1013.5 |
| 20260506225042 | 50 | 0 | 0.0 | 2.0 | 0.00 | 0.01 | 0.00 | 80 | 1013.4 |
| 20260506224551 | 50 | 0 | 0.0 | 2.0 | 0.00 | 0.01 | 0.00 | 80 | 1013.4 |
| 20260506224039 | 50 | 0 | 0.0 | 2.0 | 0.00 | 0.01 | 0.00 | 78 | 1013.3 |
| 20260506223539 | 50 | 0 | 0.0 | 2.0 | 0.00 | 0.01 | 0.00 | 78 | 1013.3 |
| 20260506223049 | 50 | 325 | 0.0 | 2.0 | 0.00 | 0.01 | 0.00 | 78 | 1013.3 |
| 20260506222540 | 50 | 0 | 0.0 | 1.0 | 0.00 | 0.01 | 0.00 | 77 | 1013.2 |
| 20260506222037 | 50 | 0 | 0.0 | 2.0 | 0.00 | 0.01 | 0.00 | 78 | 1013.1 |
| 20260506221548 | 50 | 0 | 0.0 | 2.0 | 0.00 | 0.01 | 0.00 | 78 | 1013.2 |
| 20260506221038 | 50 | 0 | 0.0 | 2.0 | 0.00 | 0.01 | 0.00 | 77 | 1013.2 |
| 20260506220543 | 50 | 0 | 0.0 | 2.0 | 0.00 | 0.01 | 0.00 | 77 | 1013.1 |
| 20260506220051 | 51 | 0 | 0.0 | 2.0 | 0.00 | 0.01 | 0.00 | 76 | 1013.1 |
| 20260506215542 | 51 | 9 | 0.0 | 3.0 | 0.00 | 0.01 | 0.01 | 76 | 1013.1 |
| 20260506215041 | 51 | 26 | 0.0 | 3.0 | 0.00 | 0.01 | 0.01 | 75 | 1013.0 |
| 20260506214544 | 51 | 334 | 0.0 | 4.0 | 0.00 | 0.01 | 0.01 | 74 | 1013.0 |
| 20260506214041 | 51 | 0 | 0.0 | 4.0 | 0.00 | 0.01 | 0.01 | 75 | 1013.0 |
| 20260506213540 | 51 | 325 | 0.0 | 4.0 | 0.00 | 0.01 | 0.01 | 74 | 1013.0 |
| 20260506213109 | 51 | 51 | 0.0 | 4.0 | 0.00 | 0.01 | 0.01 | 74 | 1012.9 |
| 20260506212541 | 51 | 0 | 0.0 | 4.0 | 0.00 | 0.01 | 0.01 | 74 | 1012.8 |
| 20260506212039 | 51 | 41 | 0.0 | 4.0 | 0.00 | 0.01 | 0.01 | 75 | 1012.8 |
| 20260506211548 | 51 | 44 | 0.0 | 3.0 | 0.00 | 0.01 | 0.01 | 75 | 1012.8 |
| 20260506211041 | 51 | 34 | 0.0 | 2.0 | 0.00 | 0.01 | 0.01 | 75 | 1012.8 |
| 20260506210541 | 51 | 0 | 0.0 | 2.0 | 0.00 | 0.01 | 0.01 | 75 | 1012.8 |
| 20260506210049 | 51 | 309 | 0.0 | 2.0 | 0.00 | 0.01 | 0.01 | 75 | 1012.8 |
| 20260506205540 | 51 | 0 | 0.0 | 4.0 | 0.00 | 0.01 | 0.01 | 75 | 1012.7 |
| 20260506205041 | 51 | 0 | 1.0 | 5.0 | 0.00 | 0.01 | 0.01 | 74 | 1012.6 |
| 20260506204550 | 51 | 76 | 1.0 | 5.0 | 0.00 | 0.01 | 0.01 | 74 | 1012.6 |
| 20260506204040 | 51 | 51 | 1.0 | 3.0 | 0.00 | 0.01 | 0.01 | 75 | 1012.5 |
| 20260506203541 | 51 | 17 | 0.0 | 3.0 | 0.00 | 0.01 | 0.01 | 75 | 1012.5 |
| 20260506203058 | 51 | 0 | 0.0 | 3.0 | 0.00 | 0.01 | 0.01 | 75 | 1012.5 |
| 20260506202544 | 51 | 0 | 0.0 | 3.0 | 0.00 | 0.01 | 0.01 | 75 | 1012.5 |
| 20260506202042 | 51 | 51 | 0.0 | 2.0 | 0.00 | 0.01 | 0.01 | 75 | 1012.4 |
| 20260506201549 | 51 | 0 | 0.0 | 4.0 | 0.00 | 0.01 | 0.01 | 74 | 1012.4 |
| 20260506201044 | 51 | 0 | 0.0 | 4.0 | 0.00 | 0.01 | 0.01 | 74 | 1012.3 |
| 20260506200541 | 51 | 325 | 0.0 | 5.0 | 0.00 | 0.01 | 0.01 | 74 | 1012.3 |
| 20260506200051 | 51 | 319 | 1.0 | 6.0 | 0.00 | 0.01 | 0.01 | 73 | 1012.4 |
| 20260506195541 | 52 | 0 | 0.0 | 6.0 | 0.00 | 0.01 | 0.01 | 73 | 1012.3 |
| 20260506195045 | 52 | 39 | 1.0 | 7.0 | 0.00 | 0.01 | 0.01 | 73 | 1012.4 |
| 20260506194549 | 52 | 41 | 1.0 | 7.0 | 0.00 | 0.01 | 0.01 | 73 | 1012.3 |
| 20260506194041 | 52 | 9 | 1.0 | 6.0 | 0.00 | 0.01 | 0.01 | 72 | 1012.2 |
| 20260506193541 | 52 | 9 | 2.0 | 6.0 | 0.00 | 0.01 | 0.01 | 72 | 1012.3 |
| 20260506193043 | 52 | 9 | 2.0 | 6.0 | 0.00 | 0.01 | 0.01 | 72 | 1012.2 |
| 20260506192543 | 52 | 15 | 1.0 | 8.0 | 0.00 | 0.01 | 0.01 | 73 | 1012.2 |
| 20260506192041 | 52 | 0 | 1.0 | 8.0 | 0.00 | 0.01 | 0.01 | 74 | 1012.2 |
| 20260506191544 | 52 | 68 | 0.0 | 7.0 | 0.00 | 0.01 | 0.01 | 74 | 1012.1 |
| 20260506191043 | 52 | 338 | 1.0 | 6.0 | 0.00 | 0.01 | 0.01 | 74 | 1012.1 |
| 20260506190543 | 52 | 55 | 1.0 | 6.0 | 0.00 | 0.01 | 0.01 | 74 | 1012.0 |
| 20260506190053 | 52 | 332 | 1.0 | 8.0 | 0.00 | 0.01 | 0.01 | 74 | 1012.0 |
| 20260506185541 | 52 | 301 | 1.0 | 8.0 | 0.00 | 0.01 | 0.01 | 74 | 1011.8 |
| 20260506185042 | 52 | 309 | 1.0 | 7.0 | 0.00 | 0.01 | 0.01 | 73 | 1011.9 |
| 20260506184552 | 52 | 0 | 1.0 | 9.0 | 0.00 | 0.01 | 0.01 | 73 | 1011.9 |
| 20260506184042 | 52 | 46 | 3.0 | 9.0 | 0.00 | 0.01 | 0.01 | 72 | 1011.8 |
| 20260506183543 | 52 | 321 | 2.0 | 8.0 | 0.00 | 0.01 | 0.01 | 72 | 1011.8 |
| 20260506183058 | 52 | 338 | 1.0 | 8.0 | 0.00 | 0.01 | 0.01 | 72 | 1011.7 |
| 20260506182541 | 53 | 9 | 3.0 | 9.0 | 0.00 | 0.01 | 0.01 | 71 | 1011.7 |
| 20260506182041 | 53 | 347 | 3.0 | 11.0 | 0.00 | 0.01 | 0.01 | 71 | 1011.6 |
| 20260506181613 | 53 | 39 | 3.0 | 13.0 | 0.00 | 0.01 | 0.01 | 70 | 1011.5 |
| 20260506181041 | 53 | 34 | 3.0 | 13.0 | 0.00 | 0.01 | 0.01 | 70 | 1011.5 |
| 20260506180541 | 53 | 31 | 3.0 | 12.0 | 0.00 | 0.01 | 0.01 | 69 | 1011.4 |
| 20260506180050 | 54 | 348 | 4.0 | 12.0 | 0.00 | 0.01 | 0.01 | 69 | 1011.3 |
| 20260506175544 | 54 | 76 | 2.0 | 7.0 | 0.00 | 0.01 | 0.01 | 69 | 1011.2 |
| 20260506175046 | 54 | 131 | 2.0 | 10.0 | 0.00 | 0.01 | 0.01 | 69 | 1011.2 |
| 20260506174551 | 54 | 57 | 2.0 | 11.0 | 0.00 | 0.01 | 0.01 | 68 | 1011.0 |
| 20260506174043 | 54 | 15 | 3.0 | 11.0 | 0.00 | 0.01 | 0.01 | 68 | 1010.9 |
| 20260506173541 | 54 | 9 | 2.0 | 8.0 | 0.00 | 0.01 | 0.01 | 67 | 1010.8 |
| 20260506173059 | 55 | 34 | 2.0 | 6.0 | 0.00 | 0.01 | 0.01 | 67 | 1010.8 |
| 20260506172542 | 55 | 59 | 2.0 | 6.0 | 0.00 | 0.01 | 0.01 | 67 | 1010.7 |
| 20260506172047 | 55 | 26 | 1.0 | 10.0 | 0.00 | 0.01 | 0.01 | 67 | 1010.6 |
| 20260506171546 | 55 | 42 | 2.0 | 10.0 | 0.00 | 0.01 | 0.01 | 66 | 1010.6 |
| 20260506171041 | 55 | 265 | 3.0 | 10.0 | 0.00 | 0.01 | 0.01 | 64 | 1010.5 |
| 20260506170544 | 55 | 325 | 2.0 | 10.0 | 0.00 | 0.01 | 0.01 | 63 | 1010.5 |
| 20260506170052 | 56 | 265 | 3.0 | 10.0 | 0.00 | 0.01 | 0.01 | 62 | 1010.4 |
| 20260506165538 | 56 | 338 | 4.0 | 10.0 | 0.00 | 0.01 | 0.01 | 61 | 1010.3 |
| 20260506165041 | 57 | 38 | 3.0 | 9.0 | 0.00 | 0.01 | 0.01 | 61 | 1010.3 |
| 20260506164549 | 57 | 340 | 2.0 | 10.0 | 0.00 | 0.01 | 0.01 | 59 | 1010.2 |
| 20260506164040 | 58 | 38 | 3.0 | 10.0 | 0.00 | 0.01 | 0.01 | 61 | 1010.2 |
| 20260506163542 | 58 | 9 | 2.0 | 8.0 | 0.00 | 0.01 | 0.01 | 61 | 1010.2 |
| 20260506163047 | 58 | 32 | 2.0 | 9.0 | 0.00 | 0.01 | 0.01 | 61 | 1010.1 |
| 20260506162538 | 58 | 72 | 2.0 | 10.0 | 0.00 | 0.01 | 0.01 | 61 | 1010.1 |
| 20260506162038 | 58 | 144 | 2.0 | 10.0 | 0.00 | 0.01 | 0.01 | 64 | 1010.0 |
| 20260506161548 | 57 | 330 | 2.0 | 8.0 | 0.00 | 0.01 | 0.01 | 63 | 1010.0 |
| 20260506161040 | 57 | 36 | 2.0 | 9.0 | 0.00 | 0.01 | 0.01 | 65 | 1009.9 |
| 20260506160540 | 57 | 0 | 2.0 | 9.0 | 0.00 | 0.01 | 0.01 | 65 | 1010.0 |
| 20260506160054 | 58 | 295 | 3.0 | 9.0 | 0.00 | 0.01 | 0.01 | 66 | 1009.9 |
| 20260506155543 | 57 | 48 | 3.0 | 9.0 | 0.00 | 0.01 | 0.01 | 65 | 1009.9 |
| 20260506155042 | 58 | 275 | 2.0 | 7.0 | 0.00 | 0.01 | 0.01 | 65 | 1009.8 |
| 20260506154552 | 57 | 45 | 1.0 | 8.0 | 0.00 | 0.01 | 0.01 | 66 | 1009.9 |
| 20260506154041 | 58 | 9 | 2.0 | 8.0 | 0.00 | 0.01 | 0.01 | 65 | 1009.8 |
| 20260506153540 | 58 | 72 | 1.0 | 7.0 | 0.00 | 0.01 | 0.01 | 65 | 1009.8 |
| 20260506153105 | 58 | 334 | 1.0 | 9.0 | 0.00 | 0.01 | 0.01 | 65 | 1009.8 |
| 20260506152543 | 58 | 51 | 2.0 | 12.0 | 0.00 | 0.01 | 0.01 | 65 | 1009.7 |
| 20260506152039 | 58 | 43 | 4.0 | 12.0 | 0.00 | 0.01 | 0.01 | 63 | 1009.8 |
| 20260506151551 | 59 | 314 | 3.0 | 9.0 | 0.00 | 0.01 | 0.01 | 63 | 1009.7 |
| 20260506151042 | 60 | 74 | 2.0 | 9.0 | 0.00 | 0.01 | 0.01 | 63 | 1009.7 |
| 20260506150537 | 59 | 36 | 1.0 | 8.0 | 0.00 | 0.01 | 0.01 | 63 | 1009.6 |
| 20260506150057 | 59 | 279 | 1.0 | 6.0 | 0.00 | 0.01 | 0.01 | 63 | 1009.7 |
| 20260506145538 | 59 | 22 | 1.0 | 6.0 | 0.00 | 0.01 | 0.01 | 63 | 1009.6 |
| 20260506145040 | 59 | 9 | 1.0 | 7.0 | 0.00 | 0.01 | 0.01 | 63 | 1009.6 |
| 20260506144555 | 59 | 44 | 1.0 | 8.0 | 0.00 | 0.01 | 0.01 | 64 | 1009.6 |
| 20260506144041 | 59 | 321 | 2.0 | 8.0 | 0.00 | 0.01 | 0.01 | 63 | 1009.7 |
| 20260506143540 | 59 | 41 | 2.0 | 8.0 | 0.00 | 0.01 | 0.01 | 64 | 1009.6 |
| 20260506143044 | 59 | 51 | 1.0 | 8.0 | 0.00 | 0.01 | 0.01 | 62 | 1009.7 |
| 20260506142539 | 59 | 46 | 1.0 | 8.0 | 0.00 | 0.01 | 0.01 | 62 | 1009.7 |
| 20260506142042 | 59 | 126 | 1.0 | 8.0 | 0.00 | 0.01 | 0.01 | 64 | 1009.7 |
| 20260506141550 | 59 | 270 | 1.0 | 10.0 | 0.00 | 0.01 | 0.01 | 61 | 1009.6 |
| 20260506141042 | 59 | 68 | 2.0 | 10.0 | 0.00 | 0.01 | 0.01 | 61 | 1009.6 |
| 20260506140546 | 59 | 342 | 2.0 | 10.0 | 0.00 | 0.01 | 0.01 | 60 | 1009.6 |
| 20260506140050 | 59 | 309 | 1.0 | 8.0 | 0.00 | 0.01 | 0.01 | 61 | 1009.7 |
| 20260506135540 | 59 | 31 | 2.0 | 8.0 | 0.00 | 0.01 | 0.01 | 61 | 1009.6 |
| 20260506135042 | 59 | 73 | 1.0 | 10.0 | 0.00 | 0.01 | 0.01 | 61 | 1009.6 |
| 20260506134551 | 60 | 334 | 2.0 | 10.0 | 0.00 | 0.01 | 0.01 | 63 | 1009.5 |
| 20260506134046 | 59 | 34 | 3.0 | 9.0 | 0.00 | 0.01 | 0.01 | 60 | 1009.5 |
| 20260506133540 | 59 | 305 | 2.0 | 8.0 | 0.00 | 0.01 | 0.01 | 61 | 1009.6 |
| 20260506133051 | 60 | 273 | 1.0 | 8.0 | 0.00 | 0.01 | 0.01 | 64 | 1009.5 |
| 20260506132545 | 60 | 61 | 2.0 | 8.0 | 0.00 | 0.01 | 0.01 | 62 | 1009.5 |
| 20260506132043 | 60 | 316 | 2.0 | 7.0 | 0.00 | 0.01 | 0.01 | 63 | 1009.4 |
| 20260506131554 | 61 | 338 | 2.0 | 6.0 | 0.00 | 0.01 | 0.01 | 61 | 1009.5 |
| 20260506131040 | 61 | 93 | 1.0 | 8.0 | 0.00 | 0.01 | 0.01 | 63 | 1009.4 |
| 20260506130541 | 59 | 265 | 1.0 | 8.0 | 0.00 | 0.01 | 0.01 | 66 | 1009.4 |
| 20260506130043 | 58 | 282 | 1.0 | 6.0 | 0.00 | 0.01 | 0.01 | 65 | 1009.4 |
| 20260506125540 | 58 | 221 | 1.0 | 5.0 | 0.00 | 0.01 | 0.01 | 66 | 1009.4 |
| 20260506125040 | 59 | 304 | 1.0 | 7.0 | 0.00 | 0.01 | 0.01 | 67 | 1009.4 |
| 20260506124546 | 59 | 111 | 1.0 | 7.0 | 0.00 | 0.01 | 0.01 | 69 | 1009.2 |
| 20260506124040 | 58 | 291 | 1.0 | 4.0 | 0.00 | 0.01 | 0.01 | 69 | 1009.4 |
| 20260506123538 | 57 | 196 | 0.0 | 4.0 | 0.00 | 0.01 | 0.01 | 72 | 1009.5 |
| 20260506123048 | 56 | 16 | 0.0 | 4.0 | 0.00 | 0.01 | 0.01 | 72 | 1009.4 |
| 20260506122542 | 56 | 0 | 1.0 | 4.0 | 0.00 | 0.01 | 0.01 | 74 | 1009.4 |
| 20260506122040 | 56 | 291 | 0.0 | 5.0 | 0.00 | 0.01 | 0.01 | 73 | 1009.5 |
| 20260506121547 | 55 | 0 | 1.0 | 5.0 | 0.00 | 0.01 | 0.01 | 73 | 1009.5 |